Погода в Литвиново

Россия / Кемеровская область (Кузбасс)     55°49′59″N   85°17′48″E
темп.,
°C
ветер,
м/с
пор.,
м/с
влажн.,
%
обл.,
%
осадки,
мм/ч
давл.,
гПа
погр.,
м
14 мая, пт
пт1401:00+10с4107699 0.0 1014358
04:00+8ссз498048 0.0 1015259
07:00+9ссз497097 0.0 1017386
10:00+12ссз685555 0.0 10181065
13:00+10ссз6863100 0.0 10201184
16:00+15сз783299 0.0 10191704
19:00+14сз5735100 0.0 10211467
22:00+10зсз3543100 0.0 102279
15 мая, сб
сб1501:00+9ююз224399 0.0 102230
04:00+10юз41045100 0.0 1021287
07:00+11юз61448100 0.0 1021493
10:00+15зюз81542100 0.0 1019715
13:00+16зюз7124680 0.0 1019871
16:00+18зюз91153100 0.0 10171154
19:00+20юз8124677 0.0 10141002
22:00+15юз61466100 0.8 1015327
16 мая, вс
вс1601:00+13зюз3681100 2.5 1015108
04:00+12зюз1191100 0.1 101411
07:00+13юз288992 0.2 1013254
10:00+20зюз586173 0.0 1011827
13:00+23з7104993 0.1 10091562
16:00+19ссз71066100 0.1 1009701
19:00+17с687199 0.1 1011822
22:00+10св5984100 0.0 1013481
17 мая, пн
пн1701:00+9св3583100 0.0 1015359
04:00+8ссв358578 0.0 1015309
07:00+9ссв4577100 0.0 1016713
10:00+12ссв236484 0.0 1016769
13:00+14сз445789 0.0 1017991
16:00+16сз465395 0.0 10161621
19:00+16сз245697 0.0 1015967
22:00+14ююв4864100 0.0 1013222
18 мая, вт
вт1801:00+14ююз61570100 0.9 1008456
04:00+14зюз9188096 1.9 1006659
07:00+14зюз61581100 1.9 1005509
10:00+20з81460100 0.3 10031176
13:00+22зсз8115022 0.3 10041953
16:00+21ссз710537 0.0 10041731
19:00+15с478699 4.4 1005456
22:00+13всв4693100 0.8 1005288